Wetbulb
71.42 70.83 70.51 70.31 69.00 69.11 69.49 69.31 69.15 68.58 69.19 70.37 70.99 70.08 70.08 70.38 70.80 71.25 72.56 72.75 73.85 74.40 75.13 75.23 72.50 74.18 73.76 73.70 74.11 73.47 72.87 72.49 72.71 70.13 73.30 74.73 75.03 74.11 74.92 75.28 75.27 74.67 74.68
71.57 71.20 70.16 69.94 69.77 71.41 71.21 70.40 69.55 69.14 70.08 71.05 70.43 71.38 71.58 71.14 71.49 72.47 72.88 73.27 73.49 74.26 75.12 75.99 74.49 74.64 74.13 73.32 73.06 73.05 71.71 70.47 71.15 69.44 68.25 73.02 73.61 73.69 73.79 74.45 74.68 74.33 74.56
71.74 71.83 70.67 71.23 71.63 72.17 72.47 71.96 71.88 72.65 72.02 71.43 71.17 72.25 72.67 71.75 71.31 71.36 69.94 69.25 70.33 73.03 73.61 73.43 73.95 74.18 74.23 73.69 71.02 68.75 69.23 69.39 67.50 65.09 67.58 67.19 70.76 71.06 71.91 72.64 73.36 74.01 74.51
73.27 72.01 71.14 72.52 72.95 73.57 73.15 72.07 71.58 72.24 71.99 71.68 71.78 71.87 71.48 71.26 70.76 70.25 69.93 69.62 69.47 70.15 71.53 73.02 73.97 73.10 72.62 70.97 69.73 70.06 70.16 68.78 68.35 66.46 66.50 66.05 67.38 68.53 70.30 70.76 71.55 72.35 73.37
73.89 73.24 72.69 73.22 74.44 73.35 70.20 69.07 69.98 69.93 70.75 71.24 72.41 71.06 69.94 69.75 70.31 69.82 69.10 68.90 69.18 70.67 71.04 71.86 72.40 72.84 72.00 72.10 69.49 69.67 68.11 68.77 68.42 67.65 68.21 66.67 67.71 68.44 69.30 70.56 70.79 71.13 71.67
74.08 73.51 73.25 73.50 74.13 71.11 69.60 70.28 69.23 69.10 69.76 70.83 71.62 69.86 69.87 70.12 70.11 69.66 68.76 68.84 70.23 69.68 68.87 68.51 69.27 70.70 71.85 71.49 70.30 69.40 69.57 69.47 68.85 68.35 68.52 68.60 69.00 69.33 69.83 69.93 70.65 70.72 71.12
74.25 73.79 73.07 74.54 74.20 73.12 72.21 70.95 69.54 68.35 69.76 70.96 69.71 69.24 69.17 69.37 68.72 69.59 69.58 69.03 69.66 68.54 67.18 66.03 66.25 66.87 67.13 69.72 69.84 69.69 69.67 68.97 68.88 69.25 69.32 68.66 68.39 68.49 68.04 69.81 70.30 70.50 71.29
74.30 74.54 73.64 73.49 73.84 73.69 73.03 72.34 70.71 70.75 70.76 72.25 70.42 67.65 66.00 67.14 68.95 68.21 68.71 68.95 68.87 67.66 65.26 63.95 63.93 63.86 64.27 64.84 66.89 66.64 66.41 67.75 69.06 69.16 68.89 69.03 68.86 69.30 68.18 69.80 69.80 70.96 71.25
74.14 74.22 73.68 72.50 72.94 73.49 73.03 73.17 72.54 71.06 69.85 71.15 71.31 69.52 66.52 65.51 67.01 67.73 65.87 66.90 66.34 65.56 64.36 64.23 64.28 64.04 64.22 64.47 64.23 64.17 64.59 65.19 67.23 68.64 68.89 68.74 69.33 70.11 70.11 70.52 69.98 70.62 70.93
73.83 73.65 73.44 72.42 72.44 73.36 73.61 73.81 75.01 72.52 70.97 70.52 70.58 70.59 69.00 68.29 65.09 63.49 64.10 62.36 64.90 65.00 64.24 63.17 61.79 62.19 63.32 63.40 63.89 63.79 63.88 63.82 64.76 65.84 68.06 68.81 68.45 69.01 69.57 70.33 70.23 70.29 70.30
73.40 73.36 73.54 73.01 72.52 72.35 73.67 74.10 73.74 72.27 72.88 71.30 69.73 69.57 69.01 66.36 64.52 63.42 60.81 60.69 61.64 61.23 60.29 59.23 60.11 61.02 62.30 63.09 62.54 63.19 63.02 62.17 62.21 62.75 63.55 65.72 67.49 68.06 68.94 69.25 69.30 69.10 68.54
71.93 73.73 73.78 72.89 73.47 73.42 74.58 74.02 73.38 72.73 71.70 70.76 68.92 67.77 67.21 65.18 64.52 63.08 60.49 57.94 57.91 59.20 58.21 58.22 57.85 57.97 60.09 62.14 62.94 63.48 62.52 61.74 61.54 61.43 61.51 61.92 63.32 65.83 67.01 67.89 68.39 68.68 68.59
72.50 73.86 73.04 73.64 74.31 74.59 74.46 74.02 73.21 72.49 71.31 69.56 68.80 67.70 67.64 66.96 66.25 64.61 61.94 59.23 55.71 58.07 57.59 57.90 57.51 57.20 58.17 60.90 62.89 63.04 62.00 61.04 60.34 59.87 60.26 61.07 61.26 61.96 63.93 65.81 65.04 66.92 68.09
73.06 74.11 73.91 73.93 74.53 75.31 75.00 74.05 72.38 71.80 70.53 68.13 63.02 61.45 58.25 56.98 57.70 60.31 61.69 60.59 56.02 58.38 56.37 55.79 57.91 57.80 57.22 57.74 61.36 62.24 61.04 60.49 59.79 59.36 59.11 59.09 60.57 61.22 62.54 64.49 65.66 65.78 67.60
73.46 74.14 74.40 74.85 75.56 75.71 74.83 73.23 71.66 70.19 64.32 63.25 60.81 58.79 56.96 55.88 56.15 55.98 55.79 56.39 58.74 53.64 52.97 55.32 56.15 57.22 58.17 60.15 62.60 60.83 60.51 59.38 59.60 59.00 58.21 58.17 58.85 60.48 60.59 61.89 63.22 63.46 63.69
74.82 75.04 74.76 75.30 75.36 75.78 74.44 72.41 70.75 68.09 63.66 62.25 58.62 57.99 57.12 56.28 56.29 56.52 56.67 55.50 54.40 53.55 52.57 54.38 55.28 56.08 58.59 60.79 61.63 60.34 59.53 58.82 59.17 58.42 57.42 57.10 57.30 58.19 59.23 59.56 60.09 60.87 61.30
73.78 75.17 74.78 74.96 75.36 75.65 74.48 72.25 70.52 66.38 62.06 60.64 59.01 58.56 56.83 55.98 54.32 54.21 54.82 55.10 54.80 54.63 53.65 54.43 55.05 55.75 57.74 58.11 58.44 58.96 57.55 57.06 57.87 57.68 57.21 57.14 56.54 56.91 57.31 57.39 58.04 58.51 58.96
72.68 73.70 75.27 75.26 75.31 75.70 74.62 72.29 69.44 63.97 61.56 59.90 58.61 58.51 56.59 54.27 53.19 53.50 53.21 52.92 53.08 53.33 54.15 53.48 52.46 53.61 55.85 56.43 57.28 57.00 56.18 56.18 57.17 57.36 56.69 56.78 56.34 55.75 55.58 55.76 56.22 57.15 57.25
72.17 73.24 74.44 74.86 75.18 75.68 74.54 73.35 69.12 63.51 61.09 59.73 58.98 57.58 55.14 53.74 52.04 51.59 52.23 52.69 52.91 52.94 52.24 51.92 51.50 52.51 53.85 54.98 55.55 56.00 56.03 56.37 55.74 56.88 56.55 56.87 56.51 56.28 55.56 55.33 55.39 55.60 54.54
73.49 74.52 74.86 75.17 75.57 75.74 74.62 72.04 65.99 60.96 60.04 60.11 58.79 57.34 54.11 53.03 51.84 52.59 52.70 53.04 53.20 52.72 52.25 51.63 51.44 51.64 52.11 53.57 54.01 53.64 53.10 54.29 53.62 55.24 56.09 55.62 55.48 56.16 55.99 55.88 55.74 55.06 54.27
74.56 75.38 75.24 75.40 75.67 75.56 73.65 68.52 63.40 60.52 57.90 58.04 57.32 52.62 51.37 53.38 54.17 55.03 53.66 53.56 53.93 52.79 52.27 51.81 50.96 51.43 51.48 51.76 51.89 52.68 51.29 54.35 52.49 53.89 53.94 54.73 54.62 54.34 55.39 54.94 55.95 56.20 54.63
74.83 75.17 75.42 75.59 75.07 75.33 64.86 63.48 61.40 57.59 58.53 57.50 55.79 55.81 57.32 57.73 57.53 57.89 58.32 57.97 56.09 54.03 52.39 51.79 50.19 49.28 49.44 50.10 50.51 50.92 51.04 52.04 50.28 54.84 53.23 52.09 53.49 53.57 54.60 55.62 55.60 56.06 56.50
74.78 74.85 75.18 75.47 75.16 75.12 62.24 60.81 60.28 56.88 57.18 56.88 54.63 53.96 54.45 56.24 56.85 57.44 57.71 57.13 57.30 56.38 54.88 53.56 51.63 50.94 50.97 50.93 51.15 51.89 51.38 51.41 51.14 52.84 53.41 51.13 53.47 52.56 54.58 54.82 55.29 55.66 55.88
74.36 74.45 74.91 75.30 74.73 71.30 59.88 58.33 58.82 56.20 55.33 54.31 53.00 54.11 54.89 53.91 54.44 54.17 53.80 53.42 54.01 54.81 54.50 54.74 54.62 54.56 54.48 54.78 52.87 53.05 52.87 52.63 52.63 53.42 53.51 49.88 52.52 51.92 53.45 54.50 54.11 54.44 54.82
74.48 74.54 75.39 74.84 72.37 65.20 57.36 55.89 56.56 54.23 52.81 52.95 53.26 54.34 53.99 53.69 54.54 53.58 53.22 52.08 52.25 53.65 54.75 55.66 55.03 54.35 53.91 53.97 53.48 53.45 51.92 52.64 50.80 50.86 52.61 51.94 51.24 51.46 52.32 51.96 53.63 54.62 54.62
74.51 74.90 75.16 74.57 66.86 64.58 55.09 53.91 55.26 53.79 52.06 53.01 54.56 54.34 54.07 54.14 54.03 52.69 55.08 54.67 53.68 52.34 53.23 54.96 54.27 53.96 53.76 53.27 53.19 52.02 51.51 49.30 49.72 49.12 52.16 50.30 50.23 50.99 49.16 51.96 52.71 54.22 54.72
MSLP
1016.52 1016.13 1015.92 1015.79 1015.66 1015.59 1015.57 1015.44 1015.43 1015.20 1014.88 1014.52 1014.00 1013.91 1013.62 1013.44 1013.24 1013.07 1012.82 1012.92 1012.62 1012.36 1012.65 1012.85 1013.10 1013.08 1013.35 1013.51 1013.52 1013.64 1014.21 1014.34 1014.78 1014.98 1014.61 1014.64 1014.91 1015.38 1015.84 1016.09 1016.52 1017.04 1017.41
1016.80 1016.69 1016.34 1016.18 1015.84 1015.66 1015.52 1015.51 1015.43 1015.16 1014.73 1014.48 1014.46 1014.19 1013.86 1013.61 1013.35 1013.09 1012.94 1012.88 1012.84 1012.65 1012.42 1012.66 1012.87 1012.96 1013.00 1013.05 1013.13 1013.29 1013.71 1014.32 1014.10 1014.66 1013.72 1012.87 1013.83 1014.72 1015.18 1015.55 1015.91 1016.52 1016.91
1016.52 1016.39 1016.11 1016.02 1015.85 1015.82 1015.55 1015.42 1015.16 1014.98 1015.06 1014.93 1014.72 1014.19 1013.67 1013.60 1013.45 1013.44 1013.60 1013.58 1013.28 1012.88 1012.74 1012.78 1012.58 1012.32 1012.23 1012.46 1013.13 1014.06 1014.22 1013.56 1014.61 1014.32 1014.00 1013.76 1012.85 1014.24 1014.96 1015.34 1015.50 1016.08 1016.59
1016.25 1016.54 1016.41 1016.24 1015.90 1015.60 1015.44 1015.43 1015.34 1015.26 1015.00 1014.66 1014.34 1014.16 1014.08 1013.92 1013.87 1014.11 1014.03 1013.91 1013.60 1013.32 1013.01 1012.96 1012.83 1012.66 1012.55 1012.69 1013.20 1013.38 1013.94 1014.10 1014.74 1014.13 1013.84 1013.26 1013.00 1014.12 1014.96 1014.99 1014.94 1015.60 1016.37
1016.08 1016.36 1016.24 1016.00 1015.77 1015.76 1015.81 1015.70 1015.51 1015.43 1015.08 1014.87 1015.00 1014.82 1014.86 1014.67 1014.57 1014.41 1014.26 1014.21 1014.08 1013.84 1013.81 1013.70 1013.45 1013.24 1013.08 1013.10 1013.43 1013.67 1014.04 1014.15 1014.20 1013.70 1014.09 1013.79 1013.78 1014.10 1014.42 1015.00 1015.16 1015.71 1016.48
1015.91 1015.94 1015.92 1015.84 1015.76 1015.88 1015.63 1015.62 1015.74 1015.66 1015.53 1015.30 1015.32 1015.16 1015.16 1014.98 1015.00 1014.82 1014.89 1014.73 1014.57 1014.45 1014.58 1014.58 1014.34 1014.22 1013.82 1013.88 1013.91 1013.92 1013.99 1014.13 1013.96 1013.86 1013.91 1013.90 1013.96 1014.11 1014.36 1014.75 1015.21 1015.75 1016.38
1015.72 1015.76 1015.78 1015.51 1015.52 1015.67 1015.81 1015.98 1016.12 1016.01 1015.55 1015.34 1015.37 1015.54 1015.45 1015.42 1015.61 1015.50 1015.18 1015.13 1015.01 1015.12 1015.14 1015.24 1015.11 1015.08 1014.94 1014.52 1014.23 1014.01 1013.76 1013.63 1013.51 1013.60 1013.58 1013.58 1013.67 1013.95 1014.27 1014.47 1014.93 1015.57 1016.12
1015.45 1015.53 1015.70 1015.71 1015.69 1015.79 1015.88 1015.95 1015.97 1015.89 1015.71 1015.37 1015.37 1015.50 1015.48 1015.63 1015.79 1015.94 1015.86 1015.77 1015.75 1015.60 1015.52 1015.80 1015.83 1015.80 1015.62 1015.37 1015.05 1014.71 1014.45 1014.11 1013.78 1013.50 1013.29 1013.26 1013.18 1013.69 1013.98 1014.37 1014.60 1015.18 1015.78
1015.46 1015.48 1015.61 1015.75 1015.77 1015.80 1015.76 1015.72 1015.80 1015.85 1015.87 1015.43 1015.43 1015.58 1015.43 1015.42 1015.64 1016.04 1016.31 1016.36 1016.32 1016.18 1016.20 1016.26 1016.10 1016.17 1016.13 1015.96 1015.71 1015.41 1015.15 1014.87 1014.53 1014.17 1013.90 1013.48 1013.34 1013.42 1013.76 1014.02 1014.67 1015.12 1015.62
1015.37 1015.47 1015.48 1015.52 1015.59 1015.60 1015.62 1015.60 1015.52 1015.75 1015.75 1015.57 1015.45 1015.53 1015.55 1015.65 1015.70 1016.21 1016.60 1016.86 1016.76 1016.62 1016.78 1016.79 1016.72 1016.58 1016.46 1016.28 1016.05 1015.82 1015.57 1015.43 1015.20 1014.87 1014.60 1014.46 1014.24 1013.68 1013.85 1014.17 1014.76 1015.29 1015.69
1015.24 1015.30 1015.31 1015.17 1015.30 1015.43 1015.49 1015.50 1015.54 1015.64 1015.54 1015.58 1015.68 1015.74 1015.76 1015.88 1015.96 1016.23 1016.79 1017.11 1017.16 1017.35 1017.30 1017.32 1017.18 1017.04 1016.98 1016.67 1016.46 1016.27 1016.12 1015.92 1015.82 1015.66 1015.55 1015.37 1014.98 1014.67 1014.60 1014.86 1015.24 1015.55 1015.93
1015.49 1015.19 1015.10 1015.10 1015.11 1015.33 1015.39 1015.49 1015.55 1015.58 1015.65 1015.79 1015.94 1015.88 1016.04 1016.16 1016.32 1016.49 1017.02 1017.40 1017.61 1017.72 1017.70 1017.59 1017.37 1017.28 1017.09 1016.97 1016.51 1016.40 1016.39 1016.33 1016.24 1016.14 1016.10 1015.98 1015.80 1015.54 1015.46 1015.41 1015.63 1015.84 1016.27
1015.63 1015.32 1015.23 1015.22 1015.12 1015.19 1015.23 1015.39 1015.69 1015.84 1015.97 1016.04 1016.13 1016.32 1016.39 1016.45 1016.54 1016.85 1017.09 1017.50 1017.67 1017.79 1017.76 1017.60 1017.48 1017.50 1017.28 1017.28 1017.08 1016.93 1016.79 1016.71 1016.71 1016.61 1016.44 1016.24 1016.22 1016.06 1016.01 1015.98 1016.11 1016.18 1016.51
1015.64 1015.38 1015.31 1015.20 1015.08 1014.98 1015.18 1015.52 1015.93 1016.14 1016.32 1016.40 1016.62 1016.83 1017.05 1017.21 1017.14 1017.21 1017.32 1017.45 1017.85 1017.96 1017.92 1017.55 1017.51 1017.42 1017.46 1017.45 1017.22 1016.91 1016.80 1016.80 1016.81 1016.87 1016.85 1016.80 1016.65 1016.49 1016.47 1016.37 1016.23 1016.16 1016.21
1015.52 1015.48 1015.43 1015.41 1015.22 1015.09 1015.34 1015.78 1016.04 1016.32 1016.49 1016.85 1017.10 1017.25 1017.51 1017.64 1017.61 1017.53 1017.54 1017.54 1017.60 1017.85 1017.80 1017.67 1017.67 1017.61 1017.46 1017.18 1017.28 1017.48 1017.37 1017.07 1016.86 1016.90 1016.98 1017.03 1017.08 1016.98 1016.81 1016.85 1016.93 1017.08 1017.16
1015.57 1015.48 1015.46 1015.47 1015.42 1015.36 1015.57 1015.80 1016.18 1016.58 1016.85 1017.27 1017.57 1017.69 1017.90 1018.10 1018.04 1017.93 1017.80 1017.68 1017.56 1017.74 1017.84 1018.06 1018.08 1018.01 1017.59 1017.29 1017.40 1017.72 1017.72 1017.66 1017.48 1017.36 1017.38 1017.42 1017.44 1017.56 1017.68 1017.71 1017.76 1017.82 1017.92
1015.34 1015.34 1015.43 1015.49 1015.47 1015.40 1015.60 1015.86 1016.37 1016.78 1017.10 1017.58 1017.90 1018.16 1018.50 1018.55 1018.46 1018.26 1018.08 1017.94 1017.77 1017.75 1017.79 1018.13 1018.27 1018.17 1017.86 1017.68 1017.69 1017.97 1018.11 1018.10 1018.05 1017.97 1017.95 1018.06 1018.21 1018.15 1018.19 1018.32 1018.27 1018.26 1018.50
1014.98 1015.15 1015.25 1015.28 1015.31 1015.34 1015.52 1015.89 1016.40 1016.88 1017.29 1017.81 1018.24 1018.51 1018.77 1018.80 1018.82 1018.71 1018.62 1018.68 1018.46 1018.20 1018.01 1018.10 1018.39 1018.25 1018.17 1018.03 1017.73 1017.35 1017.46 1017.70 1017.98 1018.13 1018.29 1018.38 1018.50 1018.72 1018.75 1018.70 1018.66 1018.57 1018.77
1014.54 1014.75 1014.95 1015.04 1015.05 1015.20 1015.42 1015.90 1016.45 1017.10 1017.56 1017.89 1018.27 1018.50 1018.82 1018.82 1019.01 1019.14 1019.22 1019.10 1018.90 1018.68 1018.49 1018.51 1018.65 1018.75 1018.38 1017.92 1017.72 1017.99 1018.00 1017.92 1018.08 1018.20 1018.40 1018.42 1018.52 1018.65 1018.78 1018.82 1018.87 1019.05 1019.20
1014.04 1014.30 1014.54 1014.71 1014.82 1015.00 1015.39 1016.00 1016.59 1017.18 1017.70 1018.04 1018.40 1018.56 1018.73 1018.92 1019.16 1019.43 1019.49 1019.43 1019.36 1019.19 1019.16 1019.06 1019.03 1018.89 1018.69 1018.65 1018.70 1018.60 1018.34 1018.24 1018.44 1018.49 1018.45 1018.54 1018.67 1018.69 1018.80 1018.79 1018.91 1019.11 1019.42
1013.39 1013.80 1014.11 1014.40 1014.64 1014.87 1015.32 1015.98 1016.60 1017.09 1017.66 1018.22 1018.54 1018.79 1018.94 1019.10 1019.26 1019.40 1019.50 1019.69 1019.60 1019.56 1019.64 1019.64 1019.60 1019.52 1019.46 1019.31 1019.24 1019.03 1018.70 1018.53 1018.84 1018.76 1018.70 1018.70 1018.82 1018.84 1018.92 1018.98 1018.93 1019.12 1019.47
1012.90 1013.37 1013.72 1014.11 1014.45 1014.70 1015.14 1015.73 1016.30 1017.04 1017.64 1018.14 1018.66 1019.08 1019.22 1019.47 1019.57 1019.64 1019.78 1019.81 1019.77 1019.94 1020.09 1020.18 1020.51 1020.26 1020.06 1019.98 1019.64 1019.28 1019.00 1018.71 1018.87 1018.83 1018.86 1018.96 1018.91 1019.02 1018.92 1018.97 1019.00 1019.21 1019.46
1012.68 1012.96 1013.32 1013.76 1014.10 1014.53 1015.15 1015.68 1016.15 1016.92 1017.56 1018.14 1018.64 1019.14 1019.46 1019.75 1019.71 1019.76 1020.04 1020.15 1020.30 1020.48 1020.51 1020.57 1020.79 1020.62 1020.22 1019.96 1019.69 1019.39 1019.11 1019.02 1018.93 1018.86 1018.83 1019.02 1019.07 1019.05 1018.82 1018.72 1018.89 1019.08 1019.45
1012.29 1012.60 1012.83 1013.29 1013.86 1014.52 1015.08 1015.65 1016.16 1016.88 1017.60 1018.19 1018.60 1019.02 1019.32 1019.78 1020.00 1020.01 1020.30 1020.52 1020.56 1020.62 1020.89 1020.74 1020.78 1020.85 1020.44 1019.91 1019.74 1019.49 1019.26 1019.10 1019.03 1018.99 1018.84 1019.02 1019.25 1019.19 1018.92 1018.66 1018.71 1019.08 1019.45
1011.94 1012.16 1012.37 1013.06 1013.69 1014.58 1015.04 1015.55 1016.13 1016.92 1017.61 1018.18 1018.60 1019.04 1019.26 1019.68 1019.97 1020.16 1020.44 1020.84 1021.00 1021.07 1021.06 1021.05 1020.95 1021.02 1020.66 1020.21 1019.81 1019.52 1019.36 1018.98 1019.19 1019.26 1019.24 1019.18 1019.30 1019.16 1018.95 1018.70 1018.19 1018.74 1019.46
1011.33 1011.93 1012.24 1012.68 1013.32 1014.20 1015.01 1015.46 1015.94 1016.62 1017.54 1018.21 1018.80 1019.14 1019.38 1019.61 1019.90 1020.17 1020.49 1020.67 1020.80 1020.77 1020.98 1021.14 1021.22 1021.16 1021.02 1020.66 1020.40 1020.24 1020.16 1019.82 1019.62 1019.55 1019.46 1019.48 1019.44 1019.29 1019.10 1019.13 1018.84 1019.14 1019.79
Wind_Speed
4 4 5 4 4 4 3 5 4 5 6 7 7 8 8 7 8 4 3 6 11 13 13 12 8 9 7 12 16 17 14 11 17 14 22 26 23 24 21 20 20 20 20
2 3 4 4 4 4 4 4 4 5 6 7 8 8 7 5 5 6 6 6 12 15 17 14 12 15 14 9 12 15 9 7 15 15 17 24 21 21 21 21 21 20 20
4 4 4 4 4 3 4 3 3 3 4 4 6 4 4 4 4 6 6 6 7 15 15 11 12 15 15 14 4 6 5 2 8 2 9 10 13 7 15 19 19 20 18
5 2 4 5 5 4 2 3 4 4 3 3 6 6 6 4 5 7 6 5 5 5 8 16 13 13 12 10 8 6 8 10 10 4 3 1 9 11 12 7 12 18 14
5 4 4 5 3 1 2 2 1 2 3 5 5 4 4 3 5 5 8 9 8 7 6 13 18 15 14 10 4 5 5 7 6 2 8 6 13 17 15 9 7 7 13
5 4 3 4 3 2 3 3 3 3 3 4 4 3 4 4 5 5 6 5 6 8 8 9 7 8 15 13 8 2 3 7 8 5 10 13 13 19 14 10 11 12 18
3 4 3 1 2 2 3 3 2 2 3 2 2 2 1 3 4 5 5 4 6 7 9 6 6 5 6 14 13 9 6 5 7 9 11 9 10 3 3 11 17 20 20
4 2 2 3 2 2 3 3 2 2 2 2 1 0 1 2 4 7 5 5 7 5 6 7 7 7 6 5 10 13 13 13 11 9 10 5 2 15 14 9 8 13 14
3 3 3 4 4 3 3 3 3 2 2 2 1 1 1 0 1 2 8 6 6 5 4 5 7 7 6 6 8 10 15 14 13 13 11 11 8 5 10 13 12 11 13
2 3 4 5 4 2 4 3 3 1 1 2 1 2 3 1 1 2 3 4 4 4 4 4 5 6 6 5 9 12 14 15 15 14 16 14 9 7 6 10 15 16 17
2 3 4 4 3 2 3 3 2 1 1 1 0 0 1 2 3 2 1 1 2 4 4 3 3 4 4 4 4 8 12 14 14 15 14 15 15 7 9 11 15 17 18
2 2 5 3 1 2 2 1 3 3 3 3 2 3 1 1 1 2 2 1 0 1 1 1 2 3 3 3 4 8 10 12 13 13 13 13 13 12 12 8 13 16 17
1 3 4 2 0 1 1 3 4 5 3 3 3 2 3 3 1 1 2 1 1 1 1 1 1 2 3 3 4 6 8 10 11 11 11 12 12 12 12 10 6 8 14
2 2 3 1 1 1 3 5 3 4 5 4 6 5 4 4 3 1 1 3 1 1 1 2 1 2 3 3 4 6 5 10 12 12 12 11 12 10 12 13 13 7 10
2 3 2 1 1 2 4 5 4 5 6 4 4 5 4 3 3 3 1 0 2 2 2 1 2 3 4 2 4 4 4 8 9 11 12 12 12 12 11 14 15 15 15
2 1 1 1 1 1 5 6 5 5 7 3 4 5 4 2 3 3 2 2 1 2 2 1 1 3 4 3 5 4 4 6 7 9 11 10 10 10 10 9 11 13 13
4 2 2 2 1 2 5 6 6 6 7 5 5 6 5 3 3 3 3 3 4 1 1 1 1 3 2 3 3 4 3 3 3 6 7 8 8 7 9 8 6 10 11
4 4 3 2 1 1 5 7 6 7 7 6 6 6 5 4 6 5 5 6 5 4 1 1 2 2 3 3 1 3 2 0 1 4 5 6 6 5 5 6 7 9 10
5 4 4 4 3 2 5 5 7 7 5 6 6 6 5 5 5 4 5 5 4 4 4 3 3 2 1 2 3 3 2 1 0 1 3 6 6 6 3 3 7 8 8
5 4 4 3 3 4 5 8 8 8 6 7 6 6 5 6 6 6 6 5 5 6 5 4 3 3 2 3 3 3 3 0 2 5 2 3 1 4 7 3 7 8 8
6 5 4 3 3 5 6 9 8 8 8 8 6 6 5 8 11 8 6 5 6 7 7 6 5 3 4 4 5 4 2 2 2 2 1 0 0 2 3 2 4 9 9
6 5 5 5 5 4 12 14 12 8 8 8 8 5 5 11 11 13 13 13 10 8 8 4 4 5 5 3 3 3 2 1 1 2 1 1 0 1 1 1 2 5 9
5 6 5 5 6 6 14 15 15 9 8 8 9 7 7 6 8 8 11 12 14 15 11 5 6 6 7 7 3 2 1 1 1 2 1 1 1 1 2 2 2 5 7
7 5 6 6 6 5 15 15 14 9 7 7 8 8 8 7 5 7 7 6 5 7 7 6 7 7 7 8 3 2 1 1 1 2 3 2 2 1 2 2 5 4 6
5 5 4 7 8 7 16 17 12 9 8 8 7 6 7 6 7 7 5 5 2 3 6 11 12 12 12 15 14 5 5 0 2 2 5 1 1 2 2 4 3 10 10
6 5 5 7 9 11 14 16 12 8 9 7 5 5 9 6 8 7 3 3 2 2 4 4 7 9 10 11 16 11 6 4 3 2 5 2 2 1 2 5 8 8 8
Wind_Direction
324 337 323 336 325 329 335 321 321 320 322 312 326 331 316 314 318 316 306 308 278 275 278 256 251 273 285 276 253 237 255 268 260 355 279 230 222 218 212 206 205 204 199
259 277 287 297 323 316 302 295 309 312 329 330 324 307 299 302 342 353 348 349 327 302 292 307 327 307 289 298 261 258 264 298 291 317 318 290 235 224 218 211 206 202 199
256 265 291 321 286 259 281 270 290 318 306 292 269 323 346 9 22 24 23 11 11 31 35 354 321 321 310 309 14 90 22 344 240 54 185 328 319 243 230 223 214 203 198
245 277 283 276 281 286 322 322 316 298 286 330 0 5 24 27 10 32 31 25 20 16 6 4 353 15 14 46 67 109 165 221 252 82 324 197 303 295 254 214 209 214 208
242 218 249 272 277 282 313 324 327 351 342 338 349 38 28 26 27 41 32 23 23 25 30 29 38 48 47 102 143 192 224 280 276 327 231 233 246 254 237 254 212 210 218
228 216 255 262 207 253 327 353 356 339 288 309 341 61 28 23 38 48 48 42 40 44 47 48 41 34 67 74 79 73 269 264 284 233 260 232 233 207 196 223 210 214 193
234 228 236 293 253 302 314 324 321 297 304 328 26 94 332 29 56 56 57 66 62 58 62 53 51 39 39 46 47 32 15 333 321 276 252 226 249 184 291 195 201 200 187
261 242 268 277 280 281 294 281 263 316 280 338 2 257 324 162 80 57 55 53 60 49 54 53 64 56 44 43 33 40 27 25 24 18 17 19 150 163 196 175 152 179 178
329 330 303 283 266 247 271 275 250 230 311 318 82 320 265 259 147 41 48 42 68 60 52 51 52 45 42 41 31 26 32 26 26 36 38 34 29 133 174 167 171 162 146
283 287 271 254 247 251 279 284 276 331 252 279 338 56 53 64 147 135 53 41 32 61 38 29 38 36 26 36 38 34 33 34 33 30 33 41 30 80 126 138 142 134 127
322 291 291 284 246 238 264 267 350 313 231 42 15 113 7 54 47 115 82 67 58 24 47 41 24 30 23 14 35 37 47 47 46 43 37 30 36 61 126 136 139 138 134
345 14 3 351 204 258 274 344 76 58 83 82 70 64 90 49 26 77 100 33 230 63 359 24 54 3 345 342 32 48 46 49 49 49 47 38 32 42 56 114 147 138 140
352 337 340 315 180 246 270 88 84 96 104 101 88 65 51 50 31 68 111 152 184 209 267 301 7 10 358 344 348 52 50 51 45 44 43 47 43 38 48 64 67 163 157
254 308 336 230 193 124 84 88 92 103 97 75 71 62 68 42 34 21 169 153 174 304 296 298 333 355 339 322 301 85 43 33 35 40 43 44 41 52 70 59 59 80 190
256 282 225 206 20 63 106 119 123 106 100 89 83 78 72 50 48 52 49 187 177 210 238 265 309 352 340 352 110 85 63 40 37 40 40 43 46 49 56 67 73 79 82
245 236 132 318 21 88 127 124 112 107 98 86 87 85 71 44 42 36 35 59 81 150 201 228 26 331 334 56 81 83 89 59 61 46 36 33 46 58 62 75 85 84 79
242 233 241 280 291 146 133 122 117 111 106 100 91 89 69 47 46 37 41 44 47 44 120 139 293 337 10 18 28 21 46 80 69 76 59 52 39 50 71 68 73 94 87
228 233 224 230 277 178 139 141 133 129 125 115 115 100 86 83 58 49 52 47 41 26 75 104 21 342 24 8 328 256 281 93 108 110 98 70 69 55 54 74 65 77 76
224 224 223 239 245 182 153 147 125 113 113 123 127 119 121 106 78 62 59 52 37 36 39 58 34 355 307 344 349 10 352 262 12 342 81 79 55 44 41 105 101 105 114
211 201 210 235 211 169 150 131 122 117 123 121 116 112 122 113 114 99 74 55 54 54 46 51 39 2 336 2 10 358 342 335 80 31 313 124 42 13 10 59 136 132 133
204 189 192 210 184 162 157 131 132 132 133 125 114 109 118 126 122 107 93 70 64 63 54 48 40 8 12 5 7 330 295 19 64 13 53 170 309 19 14 10 153 148 146
194 179 186 192 177 183 143 141 140 142 141 135 129 117 120 118 114 108 93 82 74 64 58 45 24 10 4 359 331 325 334 32 39 57 2 40 80 316 329 30 170 160 149
182 190 183 179 181 172 146 143 140 139 143 143 139 137 131 126 115 109 90 79 75 73 70 74 44 11 2 357 311 318 39 76 125 341 186 79 28 63 320 316 328 148 143
193 185 183 180 159 153 149 146 143 132 137 138 147 149 139 140 143 126 110 97 90 85 49 64 58 27 17 9 11 288 267 240 199 54 7 89 5 353 302 304 301 175 144
173 181 171 160 152 152 154 148 141 138 139 147 153 150 149 150 162 144 124 118 93 68 77 72 64 39 24 27 32 34 35 8 63 48 16 74 325 296 336 344 276 185 144
187 173 168 159 156 156 166 154 146 143 146 151 155 161 168 162 164 160 145 148 144 181 117 75 56 47 30 37 41 41 12 27 29 27 16 34 331 312 44 18 47 83 108